| time (UTC) | temp F | wind direction | speed MPH | gust MPH | rain 1hr in | rain 24hr in | rain mn in | humidity % | barometer mb |
| 20260831213332 | 100 | 142 | 2.0 | 10.0 | 0.00 | 0.00 | 0.00 | 38 | 1010.9 |
| 20260831212332 | 99 | 200 | 3.0 | 11.0 | 0.00 | 0.00 | 0.00 | 40 | 1011.0 |
| 20260831211304 | 98 | 91 | 4.0 | 11.0 | 0.00 | 0.00 | 0.00 | 38 | 1011.3 |
| 20260831210327 | 99 | 100 | 4.0 | 10.0 | 0.00 | 0.00 | 0.00 | 39 | 1011.4 |
| 20260831205257 | 99 | 203 | 2.0 | 12.0 | 0.00 | 0.00 | 0.00 | 40 | 1011.6 |
| 20260831204240 | 98 | 169 | 3.0 | 12.0 | 0.00 | 0.00 | 0.00 | 39 | 1011.8 |
| 20260831203232 | 98 | 78 | 4.0 | 11.0 | 0.00 | 0.00 | 0.00 | 39 | 1011.9 |
| 20260831202157 | 98 | 216 | 5.0 | 14.0 | 0.00 | 0.00 | 0.00 | 41 | 1012.2 |
| 20260831201143 | 98 | 159 | 4.0 | 14.0 | 0.00 | 0.00 | 0.00 | 41 | 1012.3 |
| 20260831200125 | 98 | 184 | 4.0 | 12.0 | 0.00 | 0.00 | 0.00 | 40 | 1012.5 |
| 20260831192916 | 97 | 123 | 4.0 | 13.0 | 0.00 | 0.00 | 0.00 | 44 | 1012.9 |
| 20260831191918 | 96 | 175 | 4.0 | 10.0 | 0.00 | 0.00 | 0.00 | 46 | 1013.0 |
| 20260831190900 | 96 | 147 | 5.0 | 15.0 | 0.00 | 0.00 | 0.00 | 47 | 1013.1 |
| 20260831185839 | 95 | 182 | 5.0 | 11.0 | 0.00 | 0.00 | 0.00 | 48 | 1013.3 |
| 20260831184805 | 94 | 171 | 3.0 | 11.0 | 0.00 | 0.00 | 0.00 | 50 | 1013.4 |
| 20260831182652 | 94 | 207 | 4.0 | 12.0 | 0.00 | 0.00 | 0.00 | 51 | 1013.6 |
| 20260831181620 | 94 | 97 | 3.0 | 9.0 | 0.00 | 0.00 | 0.00 | 50 | 1013.6 |
| 20260831180617 | 94 | 151 | 3.0 | 10.0 | 0.00 | 0.00 | 0.00 | 51 | 1013.7 |
| 20260831175548 | 94 | 134 | 2.0 | 11.0 | 0.00 | 0.00 | 0.00 | 52 | 1013.9 |
| 20260831174610 | 93 | 235 | 4.0 | 11.0 | 0.00 | 0.00 | 0.00 | 52 | 1014.0 |
| 20260831173541 | 93 | 216 | 3.0 | 9.0 | 0.00 | 0.00 | 0.00 | 51 | 1014.1 |
| 20260831172549 | 93 | 238 | 3.0 | 10.0 | 0.00 | 0.00 | 0.00 | 53 | 1014.2 |
| 20260831170424 | 92 | 180 | 3.0 | 10.0 | 0.00 | 0.00 | 0.00 | 58 | 1014.4 |
| 20260831165407 | 91 | 183 | 4.0 | 13.0 | 0.00 | 0.00 | 0.00 | 57 | 1014.4 |
| 20260831164425 | 91 | 179 | 4.0 | 13.0 | 0.00 | 0.00 | 0.00 | 58 | 1014.4 |
| 20260831163356 | 91 | 202 | 3.0 | 9.0 | 0.00 | 0.00 | 0.00 | 57 | 1014.4 |
| 20260831162356 | 90 | 182 | 3.0 | 9.0 | 0.00 | 0.00 | 0.00 | 58 | 1014.4 |
| 20260831161347 | 89 | 215 | 2.0 | 10.0 | 0.00 | 0.00 | 0.00 | 64 | 1014.4 |
| 20260831160326 | 88 | 192 | 4.0 | 12.0 | 0.00 | 0.00 | 0.00 | 65 | 1014.3 |
| 20260831155333 | 88 | 186 | 3.0 | 12.0 | 0.00 | 0.00 | 0.00 | 63 | 1014.4 |
| 20260831154338 | 88 | 218 | 3.0 | 9.0 | 0.00 | 0.00 | 0.00 | 65 | 1014.4 |
| 20260831153343 | 87 | 186 | 3.0 | 10.0 | 0.00 | 0.00 | 0.00 | 68 | 1014.2 |
| 20260831152335 | 87 | 196 | 4.0 | 11.0 | 0.00 | 0.00 | 0.00 | 69 | 1014.0 |
| 20260831151400 | 87 | 153 | 3.0 | 11.0 | 0.00 | 0.00 | 0.00 | 71 | 1014.0 |
| 20260831150336 | 86 | 164 | 2.0 | 11.0 | 0.00 | 0.00 | 0.00 | 73 | 1014.0 |
| 20260831145352 | 85 | 223 | 4.0 | 11.0 | 0.00 | 0.00 | 0.00 | 74 | 1014.0 |
| 20260831144416 | 84 | 186 | 3.0 | 11.0 | 0.00 | 0.00 | 0.00 | 77 | 1013.9 |
| 20260831143412 | 84 | 151 | 3.0 | 11.0 | 0.00 | 0.00 | 0.00 | 79 | 1013.8 |
| 20260831142345 | 83 | 192 | 3.0 | 9.0 | 0.00 | 0.00 | 0.00 | 79 | 1013.8 |
| 20260831141330 | 82 | 182 | 2.0 | 7.0 | 0.00 | 0.00 | 0.00 | 82 | 1013.8 |
| 20260831140300 | 81 | 232 | 2.0 | 7.0 | 0.00 | 0.00 | 0.00 | 83 | 1013.5 |
| 20260831135226 | 81 | 205 | 2.0 | 7.0 | 0.00 | 0.00 | 0.00 | 85 | 1013.5 |
| 20260831134241 | 80 | 192 | 2.0 | 7.0 | 0.00 | 0.00 | 0.00 | 87 | 1013.5 |
| 20260831133303 | 79 | 198 | 1.0 | 6.0 | 0.00 | 0.00 | 0.00 | 89 | 1013.4 |
| 20260831131054 | 78 | 184 | 1.0 | 5.0 | 0.00 | 0.00 | 0.00 | 92 | 1013.4 |
| 20260831130054 | 77 | 176 | 1.0 | 4.0 | 0.00 | 0.00 | 0.00 | 92 | 1013.1 |
| 20260831125026 | 77 | 194 | 1.0 | 5.0 | 0.00 | 0.00 | 0.00 | 92 | 1013.1 |
| 20260831124029 | 77 | 196 | 2.0 | 5.0 | 0.00 | 0.00 | 0.00 | 92 | 1013.0 |
| 20260831123026 | 77 | 196 | 2.0 | 4.0 | 0.00 | 0.00 | 0.00 | 91 | 1013.0 |
| 20260831120850 | 77 | 188 | 1.0 | 4.0 | 0.00 | 0.00 | 0.00 | 91 | 1013.0 |
| 20260831115856 | 78 | 210 | 1.0 | 6.0 | 0.00 | 0.00 | 0.00 | 90 | 1012.9 |
| 20260831114910 | 78 | 200 | 1.0 | 7.0 | 0.00 | 0.00 | 0.00 | 90 | 1012.8 |
| 20260831113844 | 78 | 174 | 2.0 | 7.0 | 0.00 | 0.00 | 0.00 | 90 | 1012.9 |
| 20260831112821 | 78 | 212 | 2.0 | 6.0 | 0.00 | 0.00 | 0.00 | 90 | 1012.8 |
| 20260831111814 | 78 | 198 | 2.0 | 6.0 | 0.00 | 0.00 | 0.00 | 89 | 1012.8 |
| 20260831105634 | 78 | 213 | 2.0 | 10.0 | 0.00 | 0.00 | 0.00 | 90 | 1012.6 |
| 20260831104656 | 78 | 178 | 2.0 | 10.0 | 0.00 | 0.00 | 0.00 | 90 | 1012.7 |
| 20260831103701 | 78 | 176 | 2.0 | 6.0 | 0.00 | 0.00 | 0.00 | 90 | 1012.7 |
| 20260831102707 | 77 | 190 | 3.0 | 8.0 | 0.00 | 0.00 | 0.00 | 90 | 1012.6 |
| 20260831101701 | 77 | 208 | 3.0 | 8.0 | 0.00 | 0.00 | 0.00 | 89 | 1012.6 |
| 20260831100644 | 77 | 199 | 3.0 | 8.0 | 0.00 | 0.00 | 0.00 | 89 | 1012.6 |
| 20260831095700 | 77 | 200 | 2.0 | 8.0 | 0.00 | 0.00 | 0.00 | 89 | 1012.7 |
| 20260831094633 | 77 | 215 | 2.0 | 6.0 | 0.00 | 0.00 | 0.00 | 89 | 1012.7 |
| 20260831093604 | 77 | 157 | 3.0 | 8.0 | 0.00 | 0.00 | 0.00 | 88 | 1012.6 |
| 20260831092617 | 77 | 169 | 2.0 | 12.0 | 0.00 | 0.00 | 0.00 | 88 | 1012.6 |
| 20260831091616 | 77 | 196 | 3.0 | 12.0 | 0.00 | 0.00 | 0.00 | 88 | 1012.5 |
| 20260831080834 | 78 | 169 | 3.0 | 8.0 | 0.00 | 0.00 | 0.00 | 84 | 1012.7 |
| 20260831075826 | 78 | 161 | 3.0 | 8.0 | 0.00 | 0.00 | 0.00 | 83 | 1012.7 |
| 20260831074823 | 78 | 172 | 3.0 | 8.0 | 0.00 | 0.00 | 0.00 | 83 | 1012.7 |
| 20260831073827 | 79 | 219 | 3.0 | 9.0 | 0.00 | 0.00 | 0.00 | 82 | 1012.7 |
| 20260831071740 | 79 | 196 | 4.0 | 12.0 | 0.00 | 0.00 | 0.00 | 80 | 1012.8 |
| 20260831070717 | 79 | 186 | 4.0 | 10.0 | 0.00 | 0.00 | 0.00 | 80 | 1012.7 |
| 20260831065733 | 80 | 192 | 4.0 | 10.0 | 0.00 | 0.00 | 0.00 | 79 | 1012.7 |
| 20260831064720 | 80 | 224 | 4.0 | 9.0 | 0.00 | 0.00 | 0.00 | 78 | 1012.8 |
| 20260831063700 | 80 | 192 | 4.0 | 11.0 | 0.00 | 0.00 | 0.00 | 77 | 1012.9 |
| 20260831062626 | 81 | 166 | 4.0 | 11.0 | 0.00 | 0.00 | 0.00 | 76 | 1012.9 |
| 20260831061610 | 81 | 193 | 5.0 | 11.0 | 0.00 | 0.00 | 0.00 | 75 | 1012.8 |
| 20260831060613 | 81 | 198 | 5.0 | 11.0 | 0.00 | 0.00 | 0.00 | 74 | 1012.7 |
| 20260831055545 | 81 | 184 | 5.0 | 10.0 | 0.00 | 0.00 | 0.00 | 73 | 1012.7 |
| 20260831054601 | 82 | 207 | 5.0 | 11.0 | 0.00 | 0.00 | 0.00 | 73 | 1012.7 |
| 20260831053542 | 82 | 174 | 5.0 | 11.0 | 0.00 | 0.00 | 0.00 | 73 | 1012.5 |
| 20260831052531 | 82 | 162 | 5.0 | 11.0 | 0.00 | 0.00 | 0.00 | 73 | 1012.5 |
| 20260831051556 | 83 | 186 | 5.0 | 12.0 | 0.00 | 0.00 | 0.00 | 73 | 1012.4 |
| 20260831045330 | 84 | 192 | 4.0 | 15.0 | 0.00 | 0.00 | 0.00 | 71 | 1012.4 |
| 20260831044303 | 84 | 167 | 6.0 | 15.0 | 0.00 | 0.00 | 0.00 | 70 | 1012.4 |
| 20260831042131 | 85 | 171 | 5.0 | 11.0 | 0.00 | 0.00 | 0.00 | 68 | 1012.4 |
| 20260831034900 | 86 | 177 | 5.0 | 14.0 | 0.00 | 0.00 | 0.00 | 65 | 1012.2 |
| 20260831033839 | 86 | 164 | 4.0 | 10.0 | 0.00 | 0.00 | 0.00 | 63 | 1012.1 |
| 20260831032811 | 86 | 175 | 4.0 | 10.0 | 0.00 | 0.00 | 0.00 | 62 | 1011.9 |
| 20260831030714 | 87 | 194 | 3.0 | 11.0 | 0.00 | 0.00 | 0.00 | 61 | 1011.8 |
| 20260831025705 | 87 | 159 | 3.0 | 11.0 | 0.00 | 0.00 | 0.00 | 60 | 1011.5 |
| 20260831024726 | 88 | 173 | 4.0 | 9.0 | 0.00 | 0.00 | 0.00 | 59 | 1011.4 |
| 20260831023655 | 88 | 136 | 4.0 | 12.0 | 0.00 | 0.00 | 0.00 | 58 | 1011.2 |
| 20260831021546 | 89 | 157 | 3.0 | 8.0 | 0.00 | 0.00 | 0.00 | 55 | 1010.9 |
| 20260831015424 | 90 | 197 | 4.0 | 9.0 | 0.00 | 0.00 | 0.00 | 54 | 1010.5 |
| 20260831014435 | 90 | 176 | 3.0 | 10.0 | 0.00 | 0.00 | 0.00 | 53 | 1010.4 |
| 20260831013402 | 90 | 155 | 2.0 | 10.0 | 0.00 | 0.00 | 0.00 | 51 | 1010.2 |
| 20260831012343 | 91 | 138 | 1.0 | 3.0 | 0.00 | 0.00 | 0.00 | 49 | 1010.1 |
| 20260831010222 | 92 | 123 | 1.0 | 5.0 | 0.00 | 0.00 | 0.00 | 47 | 1010.0 |
| 20260831005207 | 93 | 140 | 1.0 | 7.0 | 0.00 | 0.00 | 0.00 | 46 | 1009.9 |
| 20260831004206 | 94 | 105 | 2.0 | 8.0 | 0.00 | 0.00 | 0.00 | 45 | 1010.0 |
| 20260831003203 | 94 | 195 | 2.0 | 8.0 | 0.00 | 0.00 | 0.00 | 43 | 1009.9 |
| 20260831002207 | 95 | 148 | 2.0 | 6.0 | 0.00 | 0.00 | 0.00 | 43 | 1009.8 |
| 20260831001137 | 95 | 179 | 3.0 | 7.0 | 0.00 | 0.00 | 0.00 | 42 | 1009.8 |
| 20260831000112 | 96 | 171 | 3.0 | 9.0 | 0.00 | 0.00 | 0.00 | 41 | 1009.8 |
| 20260830235048 | 97 | 165 | 3.0 | 8.0 | 0.00 | 0.00 | 0.00 | 40 | 1009.8 |
| 20260830234022 | 97 | 140 | 2.0 | 6.0 | 0.00 | 0.00 | 0.00 | 40 | 1010.0 |
| 20260830232951 | 97 | 160 | 3.0 | 9.0 | 0.00 | 0.00 | 0.00 | 39 | 1009.9 |
| 20260830231929 | 97 | 106 | 3.0 | 9.0 | 0.00 | 0.00 | 0.00 | 39 | 1009.9 |
| 20260830230912 | 98 | 107 | 4.0 | 11.0 | 0.00 | 0.00 | 0.00 | 39 | 1010.0 |
| 20260830225848 | 98 | 107 | 3.0 | 11.0 | 0.00 | 0.00 | 0.00 | 40 | 1010.1 |
| 20260830224910 | 98 | 109 | 2.0 | 7.0 | 0.00 | 0.00 | 0.00 | 40 | 1010.0 |
| 20260830223910 | 98 | 159 | 3.0 | 13.0 | 0.00 | 0.00 | 0.00 | 40 | 1010.1 |
| 20260830222916 | 98 | 180 | 3.0 | 13.0 | 0.00 | 0.00 | 0.00 | 40 | 1010.2 |
| 20260830221909 | 98 | 134 | 3.0 | 13.0 | 0.00 | 0.00 | 0.00 | 40 | 1010.2 |
| 20260830220847 | 97 | 186 | 5.0 | 13.0 | 0.00 | 0.00 | 0.00 | 40 | 1010.2 |
| 20260830215822 | 98 | 143 | 4.0 | 11.0 | 0.00 | 0.00 | 0.00 | 40 | 1010.4 |